Location: Dillon
(41.1766°N, 107.0923°W)
Time: 04:34:50
(UTC+00:00)

SO-50 - Pass Details

Date: 06 July 2022
Orbit: 584 x 698 km, 64.6° (Epoch: 18 August)

Event Time Altitude Azimuth Distance (km) Brightness Sun altitude
Exits shadow 05:33:16 41° 94° (E) 965 ? -22.1°
Drops below altitude 10° 05:37:10 10° 46° (NE) 2,112 ? -22.4°
Sets 05:39:37 0° 39° (NE) 3,046 ? -22.6°
